Baudette, MN

4:13 PM CST on February 21, 2018 (GMT -0600)
Baudette International

Weather History for KBDE - November, 2013

Change the Weather History Date:

Thursday, November 14, 2013

  Actual Average Record
Temperature  
Mean Temperature 32 °F -  
Max Temperature 36 °F 36 °F 63 °F (1953)
Min Temperature 28 °F 20 °F -11 °F (1940)
Degree Days  
Heating Degree Days 33    
Moisture  
Dew Point 31 °F    
Average Humidity 90    
Maximum Humidity 96    
Minimum Humidity 79    
Precipitation  
Precipitation 0.03 in - - ()
Sea Level Pressure  
Sea Level Pressure 29.76 in    
Wind  
Wind Speed 2 mph (SW)    
Max Wind Speed 8 mph    
Max Gust Speed -    
Visibility 8 miles    
Events Rain , Snow    
Averages and records for this station are not official NWS values.
T = Trace of Precipitation, MM = Missing Value Source: NWS Daily Summary

Daily Weather History Graph

Daily Weather History Graph

Search for Another Location

Airport or City:

Trip Planner

Search our weather history database for the weather conditions in past years. The results will help you decide how hot, cold, wet, or windy it might be!

Date:

Astronomy

Nov. 14, 2013 Rise Set
Actual Time 7:25 AM CST 4:39 PM CST
Civil Twilight 6:51 AM CST 5:13 PM CST
Nautical Twilight 6:13 AM CST 5:51 PM CST
Astronomical Twilight 5:36 AM CST 6:28 PM CST
Moon 3:12 PM CST (11/14) 4:08 AM CST (11/14)
Length of Visible Light 10h 22m
Length of Day
9h 13m
Waxing Gibbous, 92% of the Moon is Illuminated
Nov 14
Waxing Gibbous
Nov 17
Full
Nov 25
Last Quarter
Dec 2
New
Dec 9
First Quarter

Hourly Weather History & Observations

Time (CST) Temp. Windchill Dew Point Humidity Pressure Visibility Wind Dir Wind Speed Gust Speed Precip Events Conditions
12:53 AM 30.9 °F - 27.0 °F 85% 29.78 in 10.0 mi Calm Calm - N/A   Clear
1:53 AM 32.0 °F 28.7 °F 28.0 °F 85% 29.79 in 10.0 mi West 3.5 mph - N/A   Clear
2:53 AM 30.0 °F 26.5 °F 27.0 °F 88% 29.81 in 10.0 mi Variable 3.5 mph - N/A   Scattered Clouds
3:53 AM 28.9 °F 25.2 °F 27.0 °F 92% 29.81 in 10.0 mi North 3.5 mph - N/A   Mostly Cloudy
4:53 AM 30.9 °F - 28.0 °F 89% 29.80 in 10.0 mi Calm Calm - N/A   Overcast
5:53 AM 30.0 °F 26.5 °F 28.0 °F 92% 29.81 in 10.0 mi SSW 3.5 mph - 0.00 in   Overcast
6:53 AM 30.9 °F 27.5 °F 28.0 °F 89% 29.81 in 10.0 mi WSW 3.5 mph - N/A   Overcast
7:46 AM 30.9 °F - 28.9 °F 92% 29.78 in 2.0 mi Calm Calm - 0.00 in Snow Light Snow
7:53 AM 30.9 °F 27.5 °F 28.9 °F 92% 29.83 in 2.5 mi Variable 3.5 mph - 0.00 in Snow Light Snow
8:02 AM 30.9 °F - 28.9 °F 92% 29.78 in 5.0 mi Calm Calm - 0.00 in Snow Light Snow
8:53 AM 32.0 °F - 30.0 °F 92% 29.84 in 7.0 mi Calm Calm - 0.00 in Snow Light Snow
9:33 AM 32.0 °F - 30.9 °F 96% 29.79 in 6.0 mi Calm Calm - 0.00 in Snow Light Snow
9:43 AM 32.0 °F - 30.9 °F 96% 29.79 in 3.0 mi Calm Calm - 0.00 in Snow Light Snow
9:51 AM 32.0 °F - 30.2 °F 93% 29.78 in 2.0 mi Calm Calm - 0.00 in Snow Light Snow
9:53 AM 32.0 °F - 30.9 °F 96% 29.83 in 2.0 mi Calm Calm - 0.00 in Snow Light Snow
10:04 AM 32.0 °F - 30.9 °F 96% 29.78 in 7.0 mi Calm Calm - 0.00 in Snow Light Snow
10:53 AM 33.1 °F 28.7 °F 30.9 °F 92% 29.83 in 10.0 mi SW 4.6 mph - 0.00 in   Overcast
11:13 AM 34.0 °F - 30.9 °F 89% 29.78 in 10.0 mi Calm Calm - N/A   Overcast
11:30 AM 34.0 °F - 30.9 °F 89% 29.77 in 10.0 mi Calm Calm - N/A   Overcast
11:53 AM 34.0 °F 29.8 °F 30.9 °F 89% 29.80 in 10.0 mi SW 4.6 mph - N/A   Overcast
12:53 PM 35.1 °F - 30.9 °F 85% 29.78 in 10.0 mi Calm Calm - N/A   Overcast
1:39 PM 36.0 °F - 30.0 °F 79% 29.74 in 10.0 mi Calm Calm - N/A   Overcast
1:53 PM 36.0 °F 33.3 °F 30.0 °F 79% 29.78 in 10.0 mi West 3.5 mph - N/A   Overcast
2:02 PM 36.0 °F - 30.9 °F 82% 29.73 in 10.0 mi Calm Calm - N/A   Overcast
2:10 PM 36.0 °F - 30.0 °F 79% 29.73 in 10.0 mi Calm Calm - N/A   Overcast
2:53 PM 36.0 °F - 30.9 °F 82% 29.76 in 10.0 mi Calm Calm - N/A   Overcast
3:06 PM 36.0 °F 31.1 °F 30.9 °F 82% 29.72 in 10.0 mi SSW 5.8 mph - N/A   Overcast
3:53 PM 36.0 °F 32.1 °F 30.9 °F 82% 29.75 in 10.0 mi SW 4.6 mph - N/A   Overcast
4:53 PM 34.0 °F 28.8 °F 30.9 °F 89% 29.75 in 9.0 mi SSW 5.8 mph - 0.00 in   Overcast
5:12 PM 34.0 °F 27.2 °F 30.9 °F 89% 29.70 in 10.0 mi South 8.1 mph - N/A   Overcast
5:53 PM 34.0 °F 29.8 °F 32.0 °F 92% 29.75 in 10.0 mi South 4.6 mph - N/A   Overcast
6:06 PM 34.0 °F 28.8 °F 32.0 °F 92% 29.70 in 10.0 mi South 5.8 mph - N/A   Overcast
6:48 PM 33.8 °F 28.6 °F 32.0 °F 93% 29.69 in 10.0 mi South 5.8 mph - N/A   Overcast
6:53 PM 34.0 °F 28.0 °F 32.0 °F 92% 29.73 in 10.0 mi South 6.9 mph - N/A   Overcast
7:53 PM 34.0 °F 27.2 °F 32.0 °F 92% 29.73 in 6.0 mi SSW 8.1 mph - 0.01 in Rain Light Rain
8:07 PM 34.0 °F 28.0 °F 32.0 °F 92% 29.68 in 6.0 mi SSW 6.9 mph - 0.01 in Rain Light Rain
8:17 PM 34.0 °F 28.0 °F 33.1 °F 96% 29.68 in 7.0 mi SSW 6.9 mph - 0.02 in Rain Light Rain
8:53 PM 35.1 °F 29.3 °F 33.1 °F 92% 29.73 in 10.0 mi SW 6.9 mph - 0.02 in   Overcast
9:53 PM 35.1 °F 29.3 °F 33.1 °F 92% 29.72 in 10.0 mi SW 6.9 mph - N/A   Overcast
10:53 PM 36.0 °F 33.3 °F 34.0 °F 93% 29.72 in 10.0 mi WSW 3.5 mph - N/A   Overcast
11:25 PM 36.0 °F 32.1 °F 34.0 °F 93% 29.68 in 10.0 mi Variable 4.6 mph - N/A   Overcast
11:46 PM 36.0 °F 32.1 °F 33.1 °F 89% 29.69 in 10.0 mi Variable 4.6 mph - N/A   Overcast
11:53 PM 36.0 °F 31.1 °F 33.1 °F 89% 29.73 in 10.0 mi Variable 5.8 mph - N/A   Overcast